This demonstration page uses our WeatherBlox Daily Observations layout. Learn more.

Left ArrowRight Arrow

Hourly Observations for August 17, 2015

Temp ( °F °C ) Dew Point ( °F °C ) Humidity (%) Winds ( mph kmh ) Pressure ( in mb ) Visibility ( mi km ) Precip ( " mm )
12:53 am 00:53 Clear 74 23.3 62 16.7 67 67 Calm 29.84 1011 10 16 0.00 0.00
1:53 am 01:53 Clear 73 22.8 62 16.7 69 69 ESE 6 9 29.83 1010 10 16 0.00 0.00
2:53 am 02:53 Clear 71 21.7 61 16.1 71 71 ESE 7 11 29.84 1011 10 16 0.00 0.00
3:53 am 03:53 Clear 70 21.1 61 16.1 73 73 SE 6 9 29.85 1011 10 16 0.00 0.00
4:53 am 04:53 Clear 71 21.7 61 16.1 71 71 ESE 7 11 29.86 1011 10 16 0.00 0.00
5:53 am 05:53 Clear 72 22.2 61 16.1 68 68 SE 10 17 29.84 1011 10 16 0.00 0.00
6:53 am 06:53 Clear 71 21.7 60 15.6 68 68 SSE 7 11 29.86 1011 10 16 0.00 0.00
8:53 am 08:53 Sunny 77 25 59 15 54 54 SE 12 19 29.88 1012 10 16 0.00 0.00
9:53 am 09:53 Sunny 82 27.8 58 14.4 44 44 ESE 10 17 29.88 1012 10 16 0.00 0.00
10:53 am 10:53 Sunny 88 31.1 57 13.9 35 35 SSE 10 17 29.88 1012 10 16 0.00 0.00
11:53 am 11:53 Sunny 93 33.9 54 12.2 27 27 S 12 19 29.86 1011 10 16 0.00 0.00
12:53 pm 12:53 Sunny 94 34.4 51 10.6 23 23 S 9 15 29.85 1011 10 16 0.00 0.00
1:53 pm 13:53 Sunny 95 35 51 10.6 23 23 SSE 10 17 29.83 1010 10 16 0.00 0.00
2:53 pm 14:53 Sunny 98 36.7 51 10.6 20 20 SSE 14 22 29.80 1009 10 16 0.00 0.00
3:53 pm 15:53 Mostly Sunny 99 37.2 51 10.6 20 20 ESE 12 19 29.77 1008 10 16 0.00 0.00
4:53 pm 16:53 Sunny 97 36.1 51 10.6 21 21 SE 12 19 29.75 1007 10 16 0.00 0.00
5:53 pm 17:53 Sunny 96 35.6 50 10 21 21 SE 17 28 29.73 1007 10 16 0.00 0.00
7:53 pm 19:53 Sunny 93 33.9 49 9.4 22 22 SE 14 22 29.72 1006 10 16 0.00 0.00
8:53 pm 20:53 Clear 91 32.8 48 8.9 23 23 SE 10 17 29.73 1007 10 16 0.00 0.00
9:53 pm 21:53 Clear 88 31.1 49 9.4 26 26 SE 9 15 29.74 1007 10 16 0.00 0.00
10:53 pm 22:53 Clear 85 29.4 50 10 30 30 SE 10 17 29.75 1008 10 16 0.00 0.00
11:53 pm 23:53 Clear 84 28.9 50 10 31 31 SSE 10 17 29.75 1007 10 16 0.00 0.00

Powered by AerisWeather